LYVRLIBP

Guest
Details From LYVR - Vrsac
To LIBP - Pescara
Flight Number -
Tags Generated
Created
Modified
Stats Distance 350 nm / 648 km
Max Altitude 0 ft / 0 m
Waypoints 3
Social Downloads 1
Likes 0
Share VATSIM

Download

Looking for another format? Having issues loading an existing format? Contact us
Advertisement - Login to hide

Notes

Generated

Route

LYVR PES LIBP

ID Type Via Altitude Latitude Longitude Leg Dist Tot Dist Heading (true) Name
O LYVR APT - 0 ft / 0 m 45.15083˚ 21.30683˚ - 0 nm - VRSAC
PES VOR - 0 ft / 0 m 42.43611˚ 14.18444˚ 348 nm 348 nm 245° / 240° PESCARA VOR-DME
O LIBP APT - 0 ft / 0 m 42.42261˚ 14.17399˚ 0 nm 349 nm 210° / 210° -

Altitude Profile

Advertisement - Login to hide

Weather


0- 5 10 15 20 25 30 35+ Temperature / ° C

Clouds and Precipitation
Forecast for 2018-05-21 06:00 UTC. Updated 3 minutes ago

Ground ~20,000 ft ~40,000 ft Winds

LYVR

Details ICAO LYVR
Name VRSAC
Region Serbia and Montenegro
Timezone Europe/Belgrade (UTC+2.0)
Stats Elevation 276 ft / 84 m (AMSL)
Location 45.147866° 21.308824°
Runways 3
Magnetic Variation 4.934° E

METAR

LYVR 210500Z 14016G26KT CAVOK 20/13 Q1017 NOSIG

Decode

TAF

TAF LYVR 202300Z 2100/2124 13005KT CAVOK TX25/2114Z TN16/2102Z BECMG 2102/2105 13015KT TEMPO 2106/2112 14020G35KT

Decode

Departure Runways

ID Width Length Bearing (true) Bearing (mag) Surface Threshold Offset Overrun Length
01L 230 ft / 70 m 2,738 ft / 835 m 12.21° 7.28° Grass 0 ft / 0 m 0 ft / 0 m
01R 72 ft / 22 m 3,286 ft / 1,002 m 12.05° 7.12° Asphalt 0 ft / 0 m 0 ft / 0 m
16 110 ft / 34 m 1,541 ft / 470 m 161.32° 156.39° Grass 0 ft / 0 m 0 ft / 0 m
19L 72 ft / 22 m 3,286 ft / 1,002 m 192.05° 187.12° Asphalt 0 ft / 0 m 0 ft / 0 m
19R 230 ft / 70 m 2,738 ft / 835 m 192.21° 187.28° Grass 0 ft / 0 m 0 ft / 0 m
34 110 ft / 34 m 1,541 ft / 470 m 341.33° 336.40° Grass 0 ft / 0 m 0 ft / 0 m

LIBP

Details ICAO LIBP (PSR)
Name PESCARA
Region Italy
Timezone Europe/Rome (UTC+2.0)
Stats Elevation 48 ft / 15 m (AMSL)
Location 42.431257° 14.183030°
Runways 1
Magnetic Variation 3.427° E

METAR

LIBP 210511Z 24005KT CAVOK 16/13 Q1014

Decode

TAF

TAF LIBP 202300Z 2100/2124 VRB05KT 9999 SCT050 BECMG 2108/2110 03010KT TEMPO 2113/2117 TSRA BECMG 2116/2118 VRB05KT

Decode

Destination Runways

ID Width Length Bearing (true) Bearing (mag) Surface Threshold Offset Overrun Length
04 148 ft / 45 m 7,943 ft / 2,421 m 37.19° 33.76° Asphalt 344 ft / 105 m 0 ft / 0 m
22 148 ft / 45 m 7,943 ft / 2,421 m 217.21° 213.78° Asphalt 617 ft / 188 m 0 ft / 0 m

Approach Navaids

Runway Type Ident Frequency Range Bearing (true) Bearing (mag) Slope Elevation
22 Localiser IPS 110.70 MHz 18 nm / 33 km 217.39° 213.97° - 48 ft / 15 m (AMSL)
22 Glidescope IPS 110.70 MHz 10 nm / 19 km 217.20° 213.77° 3.00° 48 ft / 15 m (AMSL)
22 DME IPS 110.70 MHz 18 nm / 33 km - - - 48 ft / 15 m (AMSL)